Regional Weather Roundup
Issued by NWS

Home | Current Version | Previous Version | Text Only | Print | Product List | Glossary On
Versions: 1 2 3 4 5 6 7 8 9 10 11 12 13 14 15 16 17 18 19 20 21 22 23 24 25 26 27 28 29 30 31 32 33 34 35 36 37 38 39 40 41 42 43 44 45 46 47 48 49 50
000
ASUS43 KMPX 270810
RWRMN
WEATHER ROUNDUP FOR MINNESOTA
NATIONAL WEATHER SERVICE TWIN CITIES/CHANHASSEN MN
300 AM CDT WED AUG 27 2014


NOTE: "FAIR" INDICATES FEW OR NO CLOUDS BELOW 12,000 FEET WITH NO
SIGNIFICANT WEATHER AND/OR OBSTRUCTIONS TO VISIBILITY. N/A MEANS
CURRENT SKY AND/OR WEATHER CONDITIONS ARE NOT AVAILABLE.

MNZ060>063-068>070-270900-
   Twin Cities Metro

CITY           SKY/WX    TMP DP  RH WIND       PRES   REMARKS
TWIN CITIES    MOCLDY    62  57  83 CALM      30.20R
ST PAUL        MOCLDY    62  57  83 N3        30.20S
CRYSTAL        CLOUDY    63  58  83 N3        30.19S
BLAINE         CLOUDY    63  59  88 N5        30.21R
LAKEVILLE      CLOUDY    61  55  82 N7        30.20R
EDEN PRAIRIE   CLOUDY    63  57  81 NE3       30.19R
SOUTH ST PAUL  MOCLDY    63  55  75 CALM      30.19F
LAKE ELMO      CLOUDY    61  57  88 CALM      30.21S
$$
MNZ001>005-007-008-013>017-022>024-027-028-270900-
   Northwest Minnesota

CITY           SKY/WX    TMP DP  RH WIND       PRES   REMARKS
BEMIDJI        CLEAR     46  45  99 CALM      30.19S
HALLOCK        CLEAR     46  45  93 S6        30.15S
ROSEAU         CLEAR     46  43  87 SE3       30.18S
WARROAD        PTCLDY    46  43  87 S3        30.18S
THIEF RVR FALL CLEAR     50  48  93 S5        30.18S
CROOKSTON      CLEAR     50  48  93 S7        30.19R
FOSSTON        CLEAR     45  43  93 CALM      30.20S FOG
DETROIT LAKES  MOCLDY    57  55  94 CALM      30.21R
MOORHEAD       PTCLDY    57  57 100 CALM      30.20S FOG
PARK RAPIDS    CLOUDY    57  55  93 CALM      30.20S
MAHNOMEN       FAIR      54  53  99 CALM      30.19S FOG
$$
MNZ006-009>011-018-025>026-270900-
   North Central Minnesota

CITY           SKY/WX    TMP DP  RH WIND       PRES   REMARKS
BAUDETTE       CLOUDY    45  43  93 SW3       30.19S
FLAG ISLAND    PTCLDY    55  48  76 SW8       30.15S
INTL FALLS     CLEAR     37  36  96 CALM      30.19S
WASKISH        MOCLDY    46  46 100 CALM      30.20S
BIG FORK       PTCLDY    45  43  93 CALM      30.21S FOG
LONGVILLE      CLOUDY    52  52 100 CALM      30.20S
GRAND RAPIDS     N/A     46  45  93 S3        30.21R VSB 3/4
CRANE LAKE     CLEAR     39  39 100 CALM      30.21R
ORR            CLEAR     45  43  93 CALM      30.18R
COOK           FOG       45  45 100 CALM      30.20S VSB 1/2
WALKER         CLOUDY    52  51  98 CALM      30.20S
$$
MNZ012-019>021-037-270900-
   Northeast Minnesota

CITY           SKY/WX    TMP DP  RH WIND       PRES   REMARKS
DULUTH         MOCLDY    53  49  86 N3        30.19F
ELY            CLOUDY    48  46  93 CALM      30.19R
HIBBING        FOG       43  42  97 CALM      30.20S VSB 1/4
EVELETH        PTCLDY    46  46 100 CALM      30.21R FOG
DULUTH HARBOR  CLOUDY    59  52  77 W3        30.19F
TWO HARBORS    MOCLDY    52  46  82 CALM      30.17F
SILVER BAY     MOCLDY    50  50 100 CALM      30.17R
GRAND MARAIS     N/A     56  48  74 VRB3      30.15S
G MARAIS ARPRT CLOUDY    48  45  87 W3        30.18S
$$
MNZ029>031-032-039>041-046>048-054>057-064-270900-
   West Central Minnesota

CITY           SKY/WX    TMP DP  RH WIND       PRES   REMARKS
FERGUS FALLS   CLOUDY    59  57  94 CALM      30.20S
WHEATON        CLOUDY    55  55 100 CALM      30.21S
MORRIS         PTCLDY    57  55  94 CALM      30.19R
ALEXANDRIA     CLOUDY    58  56  93 E5        30.20F
ELBOW LAKE     CLOUDY    58  57  97 NE3       30.19S
WADENA         CLOUDY    55  55 100 CALM      30.20S
GLENWOOD       PTCLDY    57  55  94 NE3       30.20F
APPLETON       MOCLDY    59  55  88 CALM      30.19R
BENSON         CLOUDY    57  55  94 CALM      30.19S
ORTONVILLE     CLOUDY    59  55  88 CALM      30.19S
MADISON        MOCLDY    59  57  94 CALM      30.19S
WILLMAR        CLOUDY    61  57  88 CALM      30.20F
$$
MNZ033>034-036-042>043-049>051-058-059-270900-
   Central Minnesota

CITY           SKY/WX    TMP DP  RH WIND       PRES   REMARKS
ST CLOUD       CLOUDY    61  56  83 NE5       30.19S
SAUK CENTRE    CLOUDY    57  55  94 CALM      30.20F
PAYNESVILLE    HVY RAIN  58  56  94 CALM      30.19F
AITKIN         HAZE      55  48  76 CALM      30.20S VSB 1
PINE RIVER     CLOUDY    55  55 100 CALM      30.23S
BRAINERD       CLOUDY    55  55 100 CALM      30.21S
STAPLES        CLOUDY    55  55 100 CALM      30.20F
LONG PRAIRIE   MOCLDY    54  54 100 CALM      30.21S
LITTLE FALLS   MOCLDY    55  54  94 CALM      30.20F
LITCHFIELD     MOCLDY    61  61 100 CALM      30.20F
BUFFALO        CLOUDY    61  57  88 CALM      30.21S
MAPLE LAKE     CLOUDY    62  59  91 CALM      30.21S
$$
MNZ037-044-045-052-053-270900-
   East Central Minnesota

CITY           SKY/WX    TMP DP  RH WIND       PRES   REMARKS
PRINCETON      CLOUDY    59  55  88 N5        30.21F
MORA           RAIN      54  50  87 CALM      30.23S
CAMBRIDGE      MOCLDY    61  52  72 CALM      30.19F
RUSH CITY      LGT RAIN  57  54  92 NE3       30.21S
MOOSE LAKE     CLOUDY    54  52  94 CALM      30.19S
HINCKLEY       LGT RAIN  55  54  94 CALM      30.22R
CLOQUET        MOCLDY    54  50  87 CALM      30.20S
MCGREGOR       MOCLDY    52  52 100 CALM      30.21S VSB 1
$$
MNZ071>073-080-081-089-090-097-098-270900-
   Southwest Minnesota

CITY           SKY/WX    TMP DP  RH WIND       PRES   REMARKS
MONTEVIDEO     MOCLDY    59  57  94 CALM      30.20S
GRANITE FALLS  CLOUDY    60  58  92 N3        30.20F
CANBY          PTCLDY    58  57  94 CALM      30.19F
MARSHALL       CLOUDY    61  57  88 CALM      30.18S
REDWOOD FALLS  CLOUDY    63  57  81 NE3       30.18F
OLIVIA         CLOUDY    61  55  82 NE5       30.18F
PIPESTONE      PTCLDY    59  55  88 SE3       30.19S
WINDOM         PTCLDY    59  55  88 CALM      30.19R
WORTHINGTON    CLOUDY    57  55  94 CALM      30.20S
JACKSON        MOCLDY    57  54  88 CALM      30.19S
TRACY          CLOUDY    61  59  94 CALM      30.20R
SLAYTON        PTCLDY    57  56  96 CALM      30.21R
$$
MNZ065>067-074>077-082>085-091>093-270900-
   South Central Minnesota

CITY           SKY/WX    TMP DP  RH WIND       PRES   REMARKS
MANKATO        CLOUDY    63  55  77 N6        30.18S
NEW ULM        CLOUDY    64  59  82 NE5       30.18S
ST JAMES       PTCLDY    61  59  94 CALM      30.19S
FAIRMONT       PTCLDY    55  52  88 CALM      30.18R
GLENCOE        CLOUDY    63  55  76 NE3       30.19F
FARIBAULT      CLOUDY    64  57  77 N3        30.19S
OWATONNA       CLOUDY    63  59  88 CALM      30.19R
WASECA         CLOUDY    59  54  82 CALM      30.20S
ALBERT LEA     MOCLDY    61  59  94 CALM      30.17F
$$
MNZ078>079-086>088-094>096-270900-
   Southeast Minnesota

CITY           SKY/WX    TMP DP  RH WIND       PRES   REMARKS
ROCHESTER      CLOUDY    61  57  87 CALM      30.20F
RED WING       LGT RAIN  63  55  77 CALM      30.18R
STANTON        CLOUDY    62  60  92 N3        30.18R
DODGE CENTER   CLOUDY    63  61  94 CALM      30.19S
WINONA         MOCLDY    61  59  94 CALM      30.18S
AUSTIN         MOCLDY    57  57 100 CALM      30.17F
PRESTON        PTCLDY    60  58  94 CALM      30.19S
$$
ABBREVIATIONS USED IN REMARKS
   TC - TEMPERATURES IN CELSIUS
  WCI - WIND CHILL INDEX
   HX - HEAT INDEX
  VSB - VISIBILITY
$$


USA.gov is the U.S. government's official web portal to all federal, state and local government web resources and services.